Voltar ao catálogo

COSMOS 1851

AtivoMilitarHEO
NORAD 18103·PAYLOAD·🇷🇺 Russia

Lançado Jun 12, 1987 de Plesetsk Cosmodrome

Loading…

Próximas Passagens (próximas 24 horas)

TLE

AtualizadoSource: Space-Track

Época: Sep 14, 2026, 14:32 UTC

1 18103U 87050A   26257.60595448  .00000018  00000-0  00000-0 0  9995
2 18103  70.9889 184.4725 4699946  36.7828 100.9803  2.00530317287580

Acompanhe COSMOS 1851 em tempo real com AllMySat

Download on the App Store